Weather in Burmistrovo

Russia / Novosibirsk Oblast     54°38′10″N   82°50′10″E
temp.,
°C
wind,
m/s
gust,
m/s
humid.,
%
clouds,
%
prec.,
mm/h
press.,
hPa
HPBL,
m
28 july, wed
wed2801:00+14wnw2267100 0.0 101018
04:00+14nw2267100 0.0 100920
07:00+13n2268100 0.0 101032
10:00+14wnw1169100 0.0 1010114
13:00+15wsw0166100 0.0 1011291
16:00+17ssw226037 0.0 1011793
19:00+15sse226551 0.0 101065
22:00+15ssw1159100 0.0 101011
29 july, thu
thu2901:00+14sse226299 0.0 101011
04:00+13sse227058 0.0 101011
07:00+13s337097 0.0 101028
10:00+15ssw22665 0.0 1010167
13:00+16s12591 0.0 1009556
16:00+17se33550 0.0 1008230
19:00+18ne115527 0.0 100846
22:00+16nnw3364100 0.0 100827
30 july, fri
fri3001:00+13n347880 0.0 100929
04:00+14n3479100 0.0 101063
07:00+13wnw4593100 0.7 101181
10:00+13n128788 1.8 1013227
13:00+16s027127 1.8 1013757
16:00+17nw025713 0.0 1013941
19:00+18s225731 0.0 101462
22:00+16se115699 0.0 101511
31 july, sat
sat3101:00+14ssw336528 0.0 101621
04:00+12s336932 0.0 101628
07:00+12s347284 0.0 101753
10:00+15sse34645 0.0 1017121
13:00+19sse3553100 0.0 1015773
16:00+21sse2447100 0.0 1014559
19:00+21ese345282 0.0 101345
22:00+17se586165 0.0 101378
1 august, sun
sun101:00+15sse4767100 0.0 101381
04:00+15se4463100 0.0 101336
07:00+15se4567100 0.0 101364
10:00+15ese457088 0.0 101364
13:00+20se465375 0.0 1012274
16:00+22e34455 0.0 1011396
19:00+20ene685629 0.0 101179
22:00+18e586588 0.0 101174